#timestamp,LO_Frequency,Hit,StdDev 
1633910415.8,286047001.0,N
1633910435.6,286046998.4,N
1633910455.4,286047000.5,N
1633910475.3,286047000.9,N
1633910495.1,286047000.7,N
1633910515.8,286047000.8,N
1633910535.7,286047001.0,N
1633910555.5,286047000.6,N
1633910575.4,286047000.7,N
1633910595.2,286047000.4,N
1633910615.0,286046998.6,N
1633910615.9,286046998.6,N
1633910635.8,286046999.1,N
1633910655.6,286046999.3,N
1633910675.5,286046999.4,N
1633910695.3,286046998.4,N
1633910715.1,286047000.6,N
1633910735.9,286047001.0,N
1633910755.7,286046998.1,N
1633910775.5,286046998.3,N
1633910795.4,286046998.3,N
1633910815.2,286046998.2,N
1633910835.1,286047000.3,N
1633910836.0,286047000.3,N
1633910855.8,286047000.9,N
1633910875.6,286047000.5,N
1633910895.5,286047001.2,N
1633910915.3,286046999.0,N
1633910935.2,286046998.3,N
1633910955.9,286046998.1,N
1633910975.7,286046998.6,N
1633910995.6,286047000.9,N
1633911015.4,286047000.3,N
1633911035.2,286047000.9,N
1633911055.1,286047001.0,N
1633911056.0,286047001.0,N
1633911075.8,286047000.0,N
1633911095.7,286047001.0,N
1633911115.5,286047001.0,N
1633911135.3,286046998.5,N
1633911155.2,286046998.1,N
1633911175.0,286047001.0,N
1633911206.0,286047000.9,E
1633911215.9,286046998.1,N
1633911235.7,286046998.7,P
1633911255.5,286046998.5,P
1633911275.4,286046998.5,Y
1633911295.2,286047000.3,P
1633911315.1,286046999.8,N
1633911316.0,286046999.8,N
1633911335.8,286047002.8,Y
1633911355.6,286047002.1,P
1633911375.5,286047001.3,N
1633911395.3,286047001.7,N
1633911415.2,286047001.5,N
1633911435.9,286047004.4,Y
1633911455.7,286047002.5,P
1633911475.6,286047002.6,P
1633911495.4,286047000.9,N
1633911515.2,286046999.2,N
1633911535.1,286046999.1,N
1633911536.0,286046999.1,N
1633911555.8,286046999.4,N
1633911575.7,286046999.6,N
1633911595.5,286046999.0,N
1633911615.3,286046998.1,N
1633911635.2,286046998.1,N
1633911655.0,286047002.7,N
1633911655.9,286047002.7,N
1633911675.8,286047000.0,N
1633911695.6,286047002.8,N
1633911715.4,286047000.1,N
1633911735.3,286047002.4,N
1633911755.1,286046999.7,N
1633911775.2,286047000.4,N
1633911795.0,286047000.6,N
1633911795.9,286047000.6,N
1633911815.8,286047000.5,N
1633911835.6,286047000.7,N
1633911855.4,286047000.3,N
1633911875.3,286047002.7,N
1633911895.1,286047002.1,N
1633911915.8,286047002.2,N
1633911935.7,286047001.9,N
1633911955.5,286047002.4,N
1633911975.4,286047002.0,N
1633911995.2,286047002.6,N
1633912015.0,286047002.6,N
1633912015.9,286047002.6,N
1633912035.8,286047002.7,N
1633912055.6,286047002.8,N
1633912075.4,286047002.2,N
1633912095.3,286047002.5,N
1633912115.1,286047002.1,N
1633912135.9,286047002.6,N
1633912155.7,286047002.3,N
1633912175.5,286046999.7,N
1633912195.4,286047000.3,N
1633912215.2,286047000.4,N
1633912235.1,286047000.4,N
1633912236.0,286047000.4,N
1633912255.8,286046999.9,N
1633912275.6,286047000.5,N
1633912295.5,286046999.9,N
1633912315.3,286047000.3,N
1633912335.1,286047000.3,N
1633912355.9,286046999.8,N
1633912375.7,286047002.3,N
1633912395.6,286047000.4,N
1633912415.4,286047000.1,N
1633912435.2,286047000.1,N
1633912455.1,286047000.2,N
1633912456.0,286047000.2,N
1633912475.8,286047000.0,N
1633912495.7,286047000.7,N
1633912515.5,286047000.9,N
1633912535.3,286047000.2,N
1633912555.2,286047000.4,N
1633912575.0,286047002.7,N
1633912575.9,286047002.7,N
1633912595.8,286047002.4,N
1633912615.6,286047002.3,N
1633912635.4,286047001.8,N
1633912655.3,286047001.8,N
1633912675.1,286047004.3,Y
1633912695.9,286047001.6,P
1633912715.7,286047004.4,P
1633912735.5,286047004.2,N
1633912755.4,286047006.0,Y
1633912775.2,286047002.5,P
1633912795.0,286047003.8,P
1633912795.9,286047003.8,P
1633912815.8,286047000.3,N
1633912835.6,286046999.7,N
1633912855.5,286047002.8,N
1633912875.3,286046998.2,N
1633912895.1,286046998.5,N
1633912915.9,286047000.8,N
1633912935.7,286047000.5,N
1633912955.6,286047000.0,N
1633912975.4,286047000.9,N
1633912995.2,286046999.5,N
1633913015.1,286046997.8,N
1633913016.0,286046997.8,N
1633913035.8,286046999.6,N
1633913055.6,286046997.2,N
1633913075.5,286046996.6,N
1633913095.3,286046999.0,N
1633913115.2,286046998.2,N
1633913135.9,286046998.5,N
1633913155.7,286047001.1,N
1633913175.6,286047000.6,N
1633913195.4,286047002.6,N
1633913215.2,286047002.2,N
1633913235.1,286047000.3,N
1633913236.0,286047000.3,N
1633913255.8,286047002.1,N
1633913275.7,286047001.6,N
1633913295.5,286047002.8,N
1633913315.3,286047002.1,N
1633913335.2,286047004.3,N
1633913355.0,286047004.4,N
1633913355.9,286047004.4,N
1633913375.8,286047002.7,N
1633913395.6,286047002.4,N
1633913415.4,286047001.1,N
1633913435.3,286047000.0,N
1633913455.1,286047002.8,N
1633913475.8,286046999.8,N
1633913495.1,286047002.3,N
1633913496.0,286047002.3,N
1633913515.8,286047002.7,N
1633913535.7,286047002.2,N
1633913555.5,286047002.4,N
1633913575.3,286046999.8,N
1633913595.2,286047000.1,N
1633913615.0,286047000.4,N
1633913615.9,286047000.4,N
1633913635.7,286046999.6,N
1633913655.6,286046998.9,N
1633913675.4,286047001.2,N
1633913695.3,286046998.3,N
1633913715.1,286046999.4,N
1633913735.8,286046999.4,N
1633913755.7,286046998.5,N
1633913775.5,286047001.0,N
1633913795.4,286047001.2,N
1633913815.2,286047000.4,N
1633913835.0,286046999.7,N
1633913835.9,286046999.7,N
1633913855.8,286046999.8,N
1633913875.6,286047002.0,N
1633913895.4,286047002.1,N
1633913915.3,286047002.6,N
1633913935.1,286047001.5,N
1633913955.9,286047003.5,N
1633913975.7,286047003.8,N
1633913995.5,286047003.6,N
